Regional Weather Roundup
Issued by NWS Green Bay, WI

Home | Current Version | Previous Version | Text Only | Print | Product List | Glossary On
Versions: 1 2 3 4 5 6 7 8 9 10 11 12 13 14 15 16 17 18 19 20 21 22 23 24 25 26 27 28 29 30 31 32 33 34 35 36 37 38 39 40 41 42 43 44 45 46 47 48 49 50
320
ASUS43 KGRB 092311
RWRGRB

NORTH-CENTRAL AND NORTHEAST WISCONSIN REGIONAL WEATHER ROUNDUP
NATIONAL WEATHER SERVICE GREEN BAY WI
500 PM CST FRI DEC 09 2016

WIZ005-009-010>012-018-019-100000-
NORTH CENTRAL WISCONSIN

CITY           SKY/WX    TMP DP  RH WIND       PRES   REMARKS
IRONWOOD       FLURRIES  13   4  67 W13       30.41S WCI  -2
MANITOWISH WTR LGT SNOW  12   8  85 CALM      30.37S
ARBOR VITAE    CLOUDY    17   9  72 W3        30.37S
EAGLE RIVER    CLOUDY    14   4  67 CALM      30.36F
LAND O LAKES   CLOUDY    13   8  78 CALM      30.38S
RHINELANDER    CLOUDY    15   7  70 NW3       30.38S
PHILLIPS       CLOUDY    14  10  83 W3        30.38F
ANTIGO         CLOUDY    15   7  68 NW5       30.39S WCI   8
TOMAHAWK       CLOUDY    15   8  75 W3        30.40S
MERRILL        FLURRIES  17   9  69 W7        30.42S WCI   8
$$

WIZ013-073-100000-
NORTHEAST WISCONSIN

CITY           SKY/WX    TMP DP  RH WIND       PRES   REMARKS
IRON MOUNTAIN  CLOUDY    19   6  57 W14       30.36R WCI   6
MARINETTE      CLOUDY    23   8  52 NW6       30.42S
OCONTO         CLOUDY    22   8  55 NW9       30.43R
$$

WIZ017-030-035>037-045-100000-
CENTRAL WISCONSIN

CITY           SKY/WX    TMP DP  RH WIND       PRES   REMARKS
MEDFORD        MOCLDY    15   9  76 W7        30.40S WCI   5
WAUSAU         MOCLDY    15   9  76 W7        30.41F WCI   5
MOSINEE        CLOUDY    16  10  79 W8        30.43S WCI   5
MARSHFIELD     CLOUDY    17   9  70 W8        30.42F WCI   7
WISC RAPIDS    CLOUDY    18   9  68 NW5       30.46S
STEVENS POINT  PTCLDY    15   7  69 CALM      30.45S
WAUPACA        CLEAR     20   8  60 CALM      30.46S
SHAWANO        CLOUDY    23   8  52 NW8       30.45R
CLINTONVILLE   CLOUDY    21   7  53 NW8       30.44S
WAUTOMA        CLEAR     17   7  64 NW3       30.47S
$$

WIZ038-039-048-051-100000-
FOX VALLEY

CITY           SKY/WX    TMP DP  RH WIND       PRES   REMARKS
NWS GREEN BAY  PTCLDY    23  10  57 W12       30.44R
APPLETON       PTCLDY    19   3  49 NW13      30.43R WCI   7
OSHKOSH        CLEAR     19   7  59 NW7       30.45S WCI  10
FOND DU LAC    CLEAR     19   5  54 NW7       30.46S WCI  10
$$

WIZ022-050-052-100000-
EAST CENTRAL WISCONSIN

CITY           SKY/WX    TMP DP  RH WIND       PRES   REMARKS
EPHRAIM        CLOUDY    24   8  52 NW8G18    30.38S
WASHINGTON ISL CLOUDY    24  10  54 W8        30.38R
STURGEON BAY   CLOUDY    24   9  52 NW13      30.41S
MANITOWOC      PTCLDY    22   9  57 W10       30.44S
SHEBOYGAN      CLEAR     21   7  54 W12       30.45R WCI   9
$$

LMZ563-521-522-541>543-100000-
LAKESHORE

STATION/POSITION TIME  TEMP    WIND        PRES    VSBY  WAVE
                       AIR SEA DIR/SP/G                  HT/PER
                 (UTC) (F)     (DEG/KT/KT) (MB)    (MI)  (FT/S)
SHEBOYGAN LKSHOR 2300   23     290/ 12/ 17 1032.2R
KEWAUNEE LKSHORE 2248   24     290/  9/ 15 1029.5R
ALGOMA MARINA    2206          310/ 11/ 14   N/A
NORTHPORT PIER   2249   25     290/ 10/ 18 1028.8S
SISTER BAY LKSHO 2250   26     330/ 22/ 27   N/A
CHAMBERS ISLAND  2240   24     270/  9/ 14 1029.1R
MENOMINEE LKSHOR 2248   24     300/  9/ 13 1029.0R
$$




USA.gov is the U.S. government's official web portal to all federal, state and local government web resources and services.